Home > Time Zones > World Clock > Weather > Cuba > Havana > Past weeks

Flag for Cuba Weather past 2 weeks in Havana, Cuba

Now
72 °F

Passing clouds.


Feels Like: 69 °F
Forecast: 79 / 90 °F
Wind: 1 mph from North

Location: Aeropuerto Jose Marti - Rancho-Boyeros - Habana

Current Time: Aug 22, 2014 at 8:22:42 AM

Latest Report: Aug 22, 2014 at 7:55 AM


Visibility: 6 mi

Pressure: 30.07 "Hg

Humidity: 88%

Dew point: 68 °F

Location of HavanaLocation

Historic Weather in Havana — Graph

°F

Havana temperature yesterday

Maximum temperature yesterday: 91 °F (at 12:55 PM)
Minimum temperature yesterday: 72 °F (at 10:55 PM)
Average temperature yesterday: 81 °F

Past Weeks' High & Low Weather Summary

 TemperatureHumidityPressure
High93 °F (Aug 14, 1:55 PM)94% (Aug 10, 3:55 AM)30.09 "Hg (Aug 10, 3:55 AM)
Low70 °F (Aug 10, 5:55 AM)41% (Aug 14, 1:55 PM)29.95 "Hg (Aug 7, 5:55 PM)
Average81 °F74%30.04 "Hg
* Reported Aug 7 6:55 AM — Aug 22 6:55 AM, Havana, Weather by CustomWeather, © 2014

Note: Actual official high and low records may vary slightly from our data, if they occured in-between our weather recording intervals... More about our weather records

Advertising

Havana weather history for previous 24 hours

 ConditionsComfort  
Time TempWeatherWind HumidityBarometerVisibility
6:55 AM
Aug 22
70 °FPassing clouds.2 mph88%30.04 "Hg4 mi
5:55 AM70 °FPassing clouds.No wind94%30.04 "Hg6 mi
4:55 AM72 °FClear.No wind88%30.04 "Hg6 mi
3:55 AM72 °FClear.1 mph88%30.04 "Hg6 mi
2:55 AM73 °FClear.No wind83%30.04 "Hg6 mi
1:55 AM72 °FPassing clouds.5 mph88%30.07 "Hg6 mi
12:55 AM72 °FPassing clouds.5 mph83%30.07 "Hg6 mi
11:55 PM
Aug 21
72 °FPassing clouds.3 mph83%30.09 "Hg6 mi
10:55 PM72 °FPassing clouds.2 mph83%30.09 "Hg6 mi
9:55 PM75 °FPassing clouds.5 mph69%30.07 "Hg6 mi
8:55 PM79 °FPassing clouds.7 mph84%30.07 "Hg6 mi
7:55 PM81 °FPassing clouds.8 mph79%30.04 "Hg6 mi
6:55 PM82 °FPassing clouds.2 mph79%30.04 "Hg6 mi
5:55 PM79 °FPassing clouds.5 mph79%30.04 "Hg6 mi
5:04 PM86 °FStrong thunderstorms. Overcast.20 mph66%30.04 "Hg1 mi
4:55 PM84 °FThunderstorms. Partly sunny.8 mph62%30.04 "Hg5 mi
4:03 PM90 °FThunderstorms. Partly sunny.10 mph55%30.01 "Hg5 mi
3:55 PM91 °FPartly sunny.8 mph52%30.01 "Hg6 mi
2:55 PM88 °FScattered clouds.14 mph59%30.04 "Hg6 mi
1:55 PM90 °FPartly sunny.8 mph52%30.07 "Hg6 mi
12:55 PM91 °FPartly sunny.12 mph49%30.09 "Hg6 mi
11:55 AM90 °FScattered clouds.8 mph55%30.09 "Hg6 mi
10:55 AM88 °FPassing clouds.10 mph59%30.09 "Hg6 mi
9:55 AM82 °FPassing clouds.7 mph79%30.09 "HgN/A
8:55 AM81 °FPassing clouds.5 mph84%30.09 "Hg6 mi
Weather by CustomWeather, © 2014

See weather overviewHow to use our weather pages